Powrót do katalogu

FENGYUN 1C DEB

AktywnySSO
NORAD 30822·DEBRIS·🇨🇳 China

Wystrzelony May 10, 1999 z Taiyuan Satellite Launch Center

Loading…

Następne Przeloty (najbliższe 24 godziny)

TLE

ŚwieżeSource: Space-Track

Epoka: Sep 14, 2026, 12:56 UTC

1 30822U 99025AVG 26257.53909839  .00000361  00000-0  21684-3 0  9992
2 30822  98.7116 282.8930 0073134 221.1787 293.4722 14.11642080  5884

Śledź FENGYUN 1C DEB w czasie rzeczywistym z AllMySat

Download on the App Store